Regional Weather Roundup
Issued by NWS

Home | Current Version | Previous Version | Graphics & Text | Print | Product List | Glossary On
Versions: 1 2 3 4 5 6 7 8 9 10 11 12 13 14 15 16 17 18 19 20 21 22 23 24 25 26 27 28 29 30 31 32 33 34 35 36 37 38 39 40 41 42 43 44 45 46 47 48 49 50
000
ASUS43 KMKX 222121
RWRWI

WISCONSIN REGIONAL WEATHER ROUNDUP
NATIONAL WEATHER SERVICE MILWAUKEE/SULLIVAN WI
400 PM CDT FRI MAY 22 2015

NOTE: "FAIR" INDICATES FEW OR NO CLOUDS BELOW 12,000 FEET WITH NO
SIGNIFICANT WEATHER AND/OR OBSTRUCTIONS TO VISIBILITY.

WIZ001-002-006>008-014>016-023>028-222200-
NORTHWEST WISCONSIN

CITY           SKY/WX    TMP DP  RH WIND       PRES   REMARKS
SUPERIOR ARPT  SUNNY     56  37  48 NE6       30.19S
ASHLAND        SUNNY     71  34  25 CALM      30.20F
HAYWARD        SUNNY     70  28  21 VRB5      30.20S
SIREN          SUNNY     71  31  23 CALM      30.21S
CUMBERLAND     SUNNY     68  32  26 CALM      30.22S
RICE LAKE      SUNNY     70  30  22 SW5       30.23S
CHETEK         SUNNY     70  38  30 SW5       30.22S
LADYSMITH      SUNNY     69  34  26 W7        30.22F
EAU CLAIRE     SUNNY     70  31  23 VRB3      30.21F
MENOMONIE      SUNNY     72  31  22 CALM      30.22S
NEW RICHMOND   SUNNY     71  32  23 CALM      30.22S
OSCEOLA        SUNNY     72  35  26 N6G16     30.24S
$$

WIZ003>005-009-010-017-018-222200-
NORTH CENTRAL WISCONSIN

CITY           SKY/WX    TMP DP  RH WIND       PRES   REMARKS
MANITOWISH WTR SUNNY     64  26  24 N8        30.22S
ARBOR VITAE    SUNNY     65  24  21 N9        30.21F
WOODRUFF       SUNNY     65  24  21 N9        30.21F
RHINELANDER    SUNNY     67  26  21 W6        30.21F
EAGLE RIVER    SUNNY     66  15  14 W10G18    30.21R
LAND O LAKES   SUNNY     66  14  13 CALM      30.22S
PHILLIPS       SUNNY     67  34  29 NE10      30.20F
TOMAHAWK       MOSUNNY   67  29  24 W7        30.21S
MEDFORD        SUNNY     67  31  26 CALM      30.21F
MERRILL        SUNNY     68  33  27 W8        30.21F
$$

WIZ029-030-035-036-043>047-222200-
CENTRAL WISCONSIN

CITY           SKY/WX    TMP DP  RH WIND       PRES   REMARKS
WAUSAU         SUNNY     68  31  25 W10       30.20S
MOSINEE        SUNNY     66  36  32 S3        30.23S
MARSHFIELD     SUNNY     69  34  27 VRB5      30.22S
STEVENS POINT  SUNNY     66  31  27 CALM      30.22S
WAUPACA        SUNNY     73  26  17 SE3       30.21S
WAUTOMA        SUNNY     72  29  20 VRB3      30.21F
WISC RAPIDS    SUNNY     71  28  20 N9        30.22F
CAMP DOUGLAS   SUNNY     74  34  23 W12       30.20F
$$

WIZ011>013-019>022-031-037>040-048>050-222200-
NORTHEAST WISCONSIN

CITY           SKY/WX    TMP DP  RH WIND       PRES   REMARKS
ANTIGO         SUNNY     66  31  27 NW10G16   30.22R
SHAWANO        MOSUNNY   72  31  22 W9        30.20S
OCONTO         SUNNY     62  35  37 SE13G21   30.22S
STURGEON BAY   SUNNY     54  28  37 SE13G18   30.28S
GREEN BAY      SUNNY     69  31  24 SW7       30.22F
MANITOWOC      SUNNY     53  31  42 SE10      30.28S
APPLETON       MOSUNNY   66  32  28 S8        30.22F
CLINTONVILLE   SUNNY     70  28  21 NW8       30.21S
OSHKOSH        SUNNY     66  37  34 E8        30.22F
$$

WIZ032>034-041-042-053>061-222200-
SOUTHWEST WISCONSIN

CITY           SKY/WX    TMP DP  RH WIND       PRES   REMARKS
LA CROSSE      SUNNY     76  33  21 NW6       30.20F
SPARTA         SUNNY     73  34  23 W8        30.21F
VIROQUA        SUNNY     73  35  25 NW5       30.21F
BOSCOBEL       SUNNY     76  36  23 VRB6      30.19F
PRAIRIE DU CHI MOSUNNY   75  31  20 N5        30.18F
PLATTEVILLE    PTSUNNY   73  34  24 NW5       30.20F
$$

WIZ056-057-062-063-064-067-068-222200-
SOUTH CENTRAL WISCONSIN

CITY           SKY/WX    TMP DP  RH WIND       PRES   REMARKS
REEDSBURG      SUNNY     71  37  28 CALM      30.20F
BARABOO/DELLS  SUNNY     72  30  21 NW3       30.21F
LONE ROCK      SUNNY     74  34  23 VRB6      30.20S
MINERAL POINT  SUNNY     73  28  19 CALM      30.21S
MADISON        PTSUNNY   70  35  27 VRB3      30.21F
MIDDLETON      SUNNY     74  26  16 NE5       30.22S
WATERTOWN      SUNNY     70  35  28 CALM      30.22S
MONROE         SUNNY     72  34  25 CALM      30.21F
JANESVILLE     MOSUNNY   73  34  23 W5        30.21S
$$

WIZ051-052-058>065-066-070>072-222200-
SOUTHEAST WISCONSIN

CITY           SKY/WX    TMP DP  RH WIND       PRES   REMARKS
MILWAUKEE      MOSUNNY   56  30  37 E9        30.27S
WAUKESHA       MOSUNNY   64  36  34 SE6       30.25R
MILWAUKEE/TIMM SUNNY     61  19  20 SE9       30.27R
RACINE         SUNNY     55  28  35 E8        30.29S
BURLINGTON     SUNNY     65  35  32 SE12      30.24S
KENOSHA        SUNNY     59  33  37 E13       30.27S
FOND DU LAC    SUNNY     69  33  26 MISG      30.23S
SHEBOYGAN      SUNNY     59  26  28 S12       30.27R
WEST BEND      SUNNY     63  30  29 E8        30.25R
JUNEAU         SUNNY     67  32  27 NW5       30.24S
$$

LSZ147-162-222200-
LAKE SUPERIOR

STATION/POSITION TIME  TEMP    WIND        PRES    WAVE
                       AIR SEA DIR/SP/G            HT/PER
                 (UTC) (F)     (DEG/KT/KT) (MB)    (FT/S)
W MID LAKE BUOY  2050   39 37  130/  6/  6   N/A     0
DEVILS ISLAND    2100   44      40/  5/  6   N/A
PORT WING        2040   46      30/  8/  9   N/A
SAXON HARBOR     2040   58      60/  6/  7   N/A
$$

LMZ867-665-643>646-222200-
LAKE MICHIGAN

STATION/POSITION TIME  TEMP    WIND        PRES    WAVE
                       AIR SEA DIR/SP/G            HT/PER
                 (UTC) (F)     (DEG/KT/KT) (MB)    (FT/S)
CHAMBERS ISLAND  2000   56     100/  9/ 13   N/A
N MID LAKE BUOY  2050   39 36  160/  8/  8   N/A     0
NORTHPORT PIER   2000   45     140/ 12/ 15   N/A
SISTER BAY       2002   56     180/ 11/ 14   N/A
KEWAUNEE LAKESHO 2000   44     150/  5/  7   N/A
SHEBOYGAN LAKESH 2100          120/  9/ 11   N/A
PORT WASHINGTON  2040   47     120/  3/  4   N/A
ATWATER BUOY     2100   45 45  140/  6/  6   N/A
MILWAUKEE LAKESH 2100   46     130/  5/  5   N/A
S MID LAKE BUOY  2050   41 38  360/  6/  6   N/A     0
KENOSHA   LAKESH 2100   49      80/  5/  7   N/A
$$

TC  - TEMPERATURE IN CELSIUS
VSB - VISIBILITY IN STATUTE MILES
WCI - WIND CHILL INDEX
HX  - HEAT INDEX



USA.gov is the U.S. government's official web portal to all federal, state and local government web resources and services.